User: anonymous   Login
Location: Unspecified
(37.6100°N, 2.7800°W)
Time: 08:41:53
(UTC+00:00)
Language:

OTV 5 (USA 277) - Orbit

View from above orbital plane
View from above orbital plane
View from above satellite
View from above satellite

Ground track
Ground track

The orbit data is extracted from the following two-line orbital elements,

1 42932U 17052A   19048.16868630 0.00000000  00000-0  00000-0 0    08
2 42932  54.5148  78.7537 0002500 117.4211 242.5788 15.75204470    01
Epoch (UTC): 17 February 2019 04:02:54
Eccentricity: 0.0002500
inclination: 54.5148°
perigee height: 342 km
apogee height: 346 km
right ascension of ascending node: 78.7537°
argument of perigee: 117.4211°
revolutions per day: 15.75204470
mean anomaly at epoch: 242.5788°
orbit number at epoch: 0

The dashed part of the orbit path shows where the satellite is in the earth's shadow,  

DLR